Flag Weather past 2 weeks in Wismar, Mecklenburg-Western Pomerania, Germany

Now
37 °F

Passing clouds.


Feels Like: 32 °F
Forecast: 29 / 37 °F
Wind: 6 mph from Southeast

Location: Schwerin

Current Time: Nov 27, 2014 at 12:00:26 PM

Latest Report: Nov 27, 2014 at 11:00 AM


Visibility: 3 mi

Pressure: 30.03 "Hg

Humidity: 79%

Dew point: 31 °F

Location of WismarLocation

Historic Weather in Wismar — Graph

°F

Wismar temperature yesterday

Maximum temperature yesterday: 43 °F (at 1:00 PM)
Minimum temperature yesterday: 35 °F (at 12:00 AM)
Average temperature yesterday: 39 °F

Past Weeks' High & Low Weather Summary

 TemperatureHumidityPressure
High53 °F (Nov 14, 2:00 PM)100% (Nov 13, 12:00 AM)30.38 "Hg (Nov 13, 12:00 AM)
Low33 °F (Nov 22, 1:00 AM)75% (Nov 20, 4:00 PM)29.59 "Hg (Nov 16, 3:00 PM)
Average44 °F92%30.05 "Hg
* Reported Nov 12 11:00 AM — Nov 27 11:00 AM, Wismar, Weather by CustomWeather, © 2014

Note: Actual official high and low records may vary slightly from our data, if they occured in-between our weather recording intervals... More about our weather records

Advertising

Wismar weather history for previous 24 hours

 ConditionsComfort  
Time TempWeatherWind HumidityBarometerVisibility
11:00 AM
Nov 27
37 °FPassing clouds.6 mph79%30.03 "Hg3 mi
9:00 AM35 °FFog.6 mph87%30.05 "Hg3 mi
8:00 AM35 °FFog.6 mph88%30.04 "Hg3 mi
7:00 AM35 °FFog.6 mph91%30.04 "Hg2 mi
6:00 AM36 °FFog.7 mph92%30.04 "Hg2 mi
5:00 AM36 °FFog.6 mph91%30.05 "Hg2 mi
3:00 AM37 °FFog.6 mph88%30.08 "Hg3 mi
2:00 AM38 °FFog.5 mph86%30.09 "Hg3 mi
1:00 AM38 °FFog.5 mph86%30.11 "Hg3 mi
12:00 AM38 °FFog.5 mph88%30.12 "Hg4 mi
11:00 PM
Nov 26
38 °FFog.5 mph88%30.14 "Hg4 mi
9:00 PM38 °FPassing clouds.5 mph87%30.15 "Hg6 mi
8:00 PM38 °FPassing clouds.5 mph88%30.16 "Hg5 mi
7:00 PM38 °FPassing clouds.5 mph86%30.17 "Hg6 mi
6:00 PM38 °FPassing clouds.5 mph86%30.18 "Hg5 mi
5:00 PM40 °FOvercast.3 mph85%30.18 "Hg6 mi
3:00 PM41 °FOvercast.5 mph81%30.19 "Hg6 mi
2:00 PM41 °FPartly sunny.6 mph79%30.20 "Hg6 mi
1:00 PM43 °FOvercast.5 mph76%30.22 "Hg6 mi
12:00 PM42 °FPassing clouds.5 mph76%30.24 "Hg9 mi
Weather by CustomWeather, © 2014

See weather overviewHow to use our weather pages